Total_Precipitation_Accumulation
1.73 1.87 1.79 1.73 1.74 1.80 1.87 1.93 1.94 1.81 1.54 1.12 0.98 0.92 0.94 1.02 1.31 1.16 1.01 1.01 0.90 0.83 0.75 0.67 0.63 0.66 0.82 1.01 1.26 1.48 1.62 1.73 1.77 1.75 1.67 1.64 1.70 1.75
1.52 1.64 1.76 1.79 1.82 1.82 1.87 1.88 1.83 1.80 1.69 1.30 1.04 0.87 0.93 0.92 1.14 0.95 1.05 1.21 1.00 0.82 0.73 0.67 0.63 0.62 0.62 0.71 0.79 0.85 0.89 0.94 1.06 1.23 1.28 1.24 1.23 1.28
1.33 1.36 1.52 1.65 1.77 1.81 1.81 1.80 1.85 1.79 1.67 1.45 1.14 0.95 1.03 1.05 1.12 0.98 0.97 1.02 0.93 0.89 0.80 0.71 0.63 0.61 0.59 0.62 0.62 0.59 0.60 0.61 0.67 0.80 0.92 0.92 0.89 0.90
1.21 1.27 1.33 1.34 1.44 1.58 1.69 1.68 1.76 1.80 1.75 1.64 1.35 1.12 1.09 1.15 1.30 1.31 1.21 1.13 1.10 1.19 1.13 0.94 0.78 0.70 0.66 0.64 0.62 0.57 0.53 0.54 0.54 0.58 0.68 0.81 0.91 0.89
1.05 1.11 1.14 1.20 1.30 1.33 1.41 1.50 1.58 1.64 1.73 1.66 1.56 1.43 1.26 1.20 1.27 1.26 1.32 1.47 1.42 1.40 1.44 1.26 1.03 0.87 0.78 0.74 0.69 0.64 0.58 0.57 0.55 0.54 0.56 0.62 0.73 0.83
0.93 1.01 1.05 1.08 1.16 1.22 1.23 1.35 1.47 1.57 1.60 1.57 1.51 1.44 1.38 1.35 1.36 1.33 1.39 1.53 1.60 1.51 1.47 1.38 1.29 1.16 1.00 0.89 0.77 0.71 0.67 0.63 0.62 0.59 0.57 0.60 0.65 0.72
0.85 0.87 0.90 0.85 0.88 0.95 0.95 1.12 1.28 1.47 1.54 1.57 1.48 1.37 1.32 1.34 1.32 1.34 1.40 1.57 1.60 1.66 1.66 1.53 1.39 1.21 1.09 0.99 0.87 0.80 0.76 0.70 0.66 0.65 0.65 0.64 0.67 0.73
0.74 0.77 0.83 0.85 0.80 0.76 0.75 0.82 0.96 1.09 1.27 1.40 1.43 1.35 1.28 1.26 1.34 1.45 1.46 1.55 1.65 1.59 1.51 1.59 1.51 1.40 1.23 1.04 1.04 1.01 0.91 0.80 0.73 0.70 0.68 0.65 0.65 0.70
0.56 0.69 0.80 0.86 0.88 0.91 0.80 0.78 0.79 0.83 0.92 1.10 1.23 1.24 1.22 1.24 1.30 1.40 1.47 1.51 1.43 1.48 1.44 1.52 1.53 1.41 1.24 1.18 1.22 1.09 1.01 0.94 0.88 0.82 0.76 0.73 0.73 0.75
0.49 0.60 0.75 0.86 0.89 0.91 0.87 0.93 0.91 0.80 0.77 0.84 1.03 1.11 1.11 1.24 1.37 1.48 1.59 1.58 1.52 1.51 1.44 1.46 1.41 1.28 1.18 1.16 1.25 1.12 1.02 0.95 0.91 0.89 0.87 0.83 0.83 0.85
0.46 0.54 0.69 0.78 0.87 0.89 0.87 0.98 0.98 0.80 0.72 0.82 0.87 0.93 1.01 1.14 1.33 1.47 1.55 1.56 1.54 1.51 1.36 1.23 1.18 1.23 1.24 1.17 1.14 1.14 1.02 0.92 0.84 0.81 0.80 0.79 0.81 0.91
0.48 0.53 0.71 0.76 0.78 0.75 0.79 1.00 1.09 0.95 0.72 0.70 0.77 0.89 0.97 1.11 1.33 1.47 1.69 1.70 1.50 1.46 1.35 1.21 1.20 1.29 1.42 1.32 1.14 1.04 0.97 0.98 0.94 0.88 0.85 0.85 0.93 0.92
0.36 0.42 0.44 0.55 0.58 0.62 0.73 0.84 0.94 0.85 0.77 0.85 0.94 0.97 1.04 1.09 1.19 1.31 1.53 1.71 1.65 1.44 1.32 1.32 1.30 1.29 1.27 1.23 1.16 1.05 0.94 0.92 0.90 0.89 0.92 0.95 1.01 0.99
0.27 0.31 0.35 0.45 0.49 0.55 0.61 0.66 0.69 0.75 0.81 0.94 0.97 0.89 0.93 1.00 1.00 1.09 1.26 1.40 1.31 1.26 1.17 1.12 1.13 1.08 1.04 0.97 0.97 1.01 1.01 0.95 0.91 0.90 0.88 1.03 1.09 1.11
0.23 0.28 0.30 0.37 0.38 0.43 0.51 0.52 0.61 0.83 0.95 0.90 0.88 0.85 0.83 0.87 0.86 0.97 1.16 1.31 1.26 1.09 1.01 0.94 0.95 0.95 0.93 0.88 0.83 0.81 0.87 0.90 0.85 0.86 0.89 0.89 0.89 0.98
0.26 0.29 0.31 0.36 0.38 0.40 0.47 0.55 0.67 0.83 0.98 0.84 0.73 0.74 0.74 0.83 0.90 0.88 0.97 1.06 1.20 1.19 1.07 0.99 0.95 0.95 0.94 0.84 0.82 0.78 0.72 0.74 0.79 0.85 0.89 0.89 0.87 0.85
0.30 0.37 0.48 0.57 0.56 0.56 0.62 0.65 0.69 0.70 0.76 0.70 0.70 0.75 0.79 0.81 0.86 0.87 0.88 0.89 0.92 0.97 1.01 0.98 0.95 0.96 0.99 0.94 0.87 0.78 0.75 0.70 0.73 0.85 0.96 0.99 0.94 0.90
0.40 0.44 0.56 0.69 0.74 0.76 0.77 0.77 0.79 0.74 0.75 0.71 0.73 0.75 0.74 0.73 0.75 0.82 0.89 0.95 0.89 0.81 0.78 0.77 0.80 0.88 0.95 0.99 0.89 0.79 0.78 0.79 0.79 0.81 0.85 0.88 0.88 0.86
0.43 0.47 0.64 0.70 0.69 0.72 0.79 0.83 0.77 0.67 0.68 0.67 0.63 0.61 0.59 0.57 0.60 0.65 0.73 0.80 0.80 0.76 0.73 0.72 0.73 0.78 0.82 0.79 0.75 0.67 0.69 0.76 0.85 0.84 0.80 0.76 0.74 0.73
0.48 0.64 0.81 0.86 0.80 0.73 0.70 0.65 0.58 0.54 0.53 0.50 0.50 0.50 0.52 0.54 0.55 0.56 0.58 0.61 0.66 0.69 0.74 0.76 0.77 0.79 0.80 0.78 0.72 0.65 0.62 0.67 0.75 0.81 0.79 0.79 0.82 0.85
0.49 0.63 0.75 0.83 0.77 0.63 0.53 0.49 0.45 0.44 0.43 0.44 0.46 0.50 0.50 0.52 0.53 0.56 0.57 0.59 0.61 0.63 0.66 0.68 0.72 0.85 0.89 0.90 0.84 0.69 0.64 0.70 0.78 0.78 0.79 0.82 0.83 0.81
0.41 0.45 0.47 0.48 0.45 0.41 0.41 0.42 0.42 0.44 0.45 0.46 0.48 0.50 0.54 0.59 0.58 0.56 0.57 0.57 0.58 0.59 0.59 0.61 0.69 0.80 0.87 0.91 0.84 0.72 0.63 0.65 0.76 0.85 0.85 0.83 0.80 0.75
0.39 0.39 0.39 0.39 0.39 0.38 0.38 0.39 0.41 0.44 0.47 0.48 0.50 0.54 0.54 0.56 0.59 0.59 0.58 0.59 0.59 0.58 0.60 0.62 0.65 0.75 0.83 0.85 0.83 0.76 0.70 0.67 0.67 0.69 0.71 0.77 0.75 0.70